• Processing (Info)

  • MPEC 2023-N33 : 2023 NK

    The following Minor Planet Electronic Circular may be linked-to from your own Web pages, but must not otherwise be redistributed electronically.

    A form allowing access to any MPEC is at the bottom of this page.


    Read MPEC 2023-N32 Read MPEC 2023-N34


    M.P.E.C. 2023-N33                                  Issued 2023 July 9, 03:24 UT
    
         The Minor Planet Electronic Circulars contain information on unusual
             minor planets, routine data on comets and natural satellites,
             and occasional editorial announcements.  They are published
        on behalf of Division F of the International Astronomical Union by the
              Minor Planet Center, Smithsonian Astrophysical Observatory,
                              Cambridge, MA 02138, U.S.A.
    			  
                 Prepared using the Tamkin Foundation Computer Network
    
                                  MPC@CFA.HARVARD.EDU
                URL https://www.minorplanetcenter.net/    ISSN 1523-6714
    
                                     2023 NK                                 
    
    
    Observations:
         K23N00K*1C2023 07 08.37012020 45 06.721-14 22 32.63         18.06GVEN033G96
         K23N00K 1C2023 07 08.37556620 44 58.686-14 25 07.68               VEN033G96
         K23N00K 1C2023 07 08.38163120 44 49.657-14 27 59.98               VEN033G96
         K23N00K 1C2023 07 08.38636320 44 42.572-14 30 15.01               VEN033G96
         K23N00K mC2023 07 08.45061720 43 08.119-15 00 14.65         18.21GVEN033I52
         K23N00K mC2023 07 08.45075720 43 07.900-15 00 18.72         18.28GVEN033I52
         K23N00K mC2023 07 08.45089320 43 07.705-15 00 22.25         18.31GVEN033I52
         K23N00K mC2023 07 08.45103120 43 07.525-15 00 26.17         18.34GVEN033I52
         K23N00K KC2023 07 09.00683 20 32 51.94 -19 12 08.9          18.4 GVEN033104
         K23N00K KC2023 07 09.00921 20 32 48.64 -19 13 10.5          18.6 GVEN033104
         K23N00K KC2023 07 09.01158 20 32 45.33 -19 14 12.1          18.3 GVEN033104
         K23N00K IC2023 07 09.01383820 32 40.25 -19 15 21.9          18.7 GXEN033595
         K23N00K KC2023 07 09.01713 20 32 37.63 -19 16 35.0          18.1 GVEN033104
         K23N00K KC2023 07 09.02304620 32 27.47 -19 19 19.1          18.0 GXEN033595
         K23N00K KC2023 07 09.03226820 32 14.77 -19 23 15.3          17.9 GXEN033595
         K23N00K KC2023 07 09.03525 20 32 11.91 -19 24 32.2          17.5 RVEN033K51
         K23N00K KC2023 07 09.07060 20 31 23.24 -19 39 29.0          17.7 RVEN033K51
         K23N00K KC2023 07 09.07454 20 31 17.85 -19 41 08.3          17.6 RVEN033K51
         K23N00K KB2023 07 09.10142520 31 23.679-19 40 20.56         18.4 GXEN033Y05
         K23N00K KB2023 07 09.10378220 31 20.290-19 41 21.95         18.8 GXEN033Y05
         K23N00K KB2023 07 09.10609120 31 16.980-19 42 22.22         18.0 GXEN033Y05
    
    Observer details:
    104 San Marcello Pistoiese.  Observers P. Bacci, M. Maestripieri, M. D.
        Grazia.  Measurers P. Bacci, L. Tesi, G. Fagioli.  0.60-m F4 Reflector +
        CCD.
    595 Farra d'Isonzo.  Observer E. Pettarin.  0.61-m f/4.5 reflector + CCD.
    G96 Mt. Lemmon Survey.  Observer G. J. Leonard.  Measurers E. J. Christensen,
        D. Fay, J. B. Fazekas, D. C. Fuls, A. R. Gibbs, A. D. Grauer, H. Groeller,
        J. K. Hogan, R. A. Kowalski, S. M. Larson, G. J. Leonard, D. Rankin, R. L.
        Seaman, A. Serrano, F. C. Shelly, K. W. Wierzchos.  1.5-m reflector + 10K
        CCD.
    I52 Steward Observatory, Mt. Lemmon Station.  Observer A. Serrano.  Measurers
        E. J. Christensen, D. Fay, J. B. Fazekas, D. C. Fuls, A. R. Gibbs, A. D.
        Grauer, H. Groeller, J. K. Hogan, R. A. Kowalski, S. M. Larson, G. J.
        Leonard, D. Rankin, R. L. Seaman, A. Serrano, F. C. Shelly, K. W.
        Wierzchos.  1.0-m prime focus + CCD.
    K51 Osservatorio del Celado, Castello Tesino.  Observer M. Campestrin.  0.80-m
        f/4 reflector + CCD.
    Y05 SONEAR Wykrota-CEAMIG, Serra da Piedade.  Observer C. Jacques.  0.45-m
        f/2.9 reflector + CMO.
    
    Orbital elements:
    2023 NK                                                  Earth MOID = 0.0066 AU
    Epoch 2023 Feb. 25.0 TT = JDT 2460000.5                 Veres                   
    M 349.43269              (2000.0)            P               Q                  
    n   1.07308099     Peri.   37.46331     -0.81190314     -0.58015656             
    a   0.9448896      Node   106.95139     +0.51781865     -0.76712251             
    e   0.1171961      Incl.    3.89946     +0.26958697     -0.27375430             
    P   0.92           H   27.19          G   0.15           U   7                  
    Residuals in seconds of arc
    230708 G96  0.2-  0.0     230708 I52  0.1+  0.1-    230709 595  0.2+  0.1-
    230708 G96  0.7+  0.3+    230709 104  0.1-  0.0     230709 K51  0.2+  0.3+
    230708 G96  0.4+  0.6+    230709 104  0.0   0.1+    230709 K51  0.1-  0.0
    230708 G96  0.4-  0.0     230709 104  0.2-  0.2-    230709 K51  0.0   0.3-
    230708 I52  0.1+  0.0     230709 595  0.2+  0.0     230709 Y05  0.3+  0.7-
    230708 I52  0.2-  0.2-    230709 104  0.1+  0.3+    230709 Y05  0.2-  0.4-
    230708 I52  0.1-  0.0     230709 595  0.4-  0.2-    230709 Y05  0.4-  0.3-
    
    Ephemeris:
    2023 NK                  a,e,i = 0.94, 0.12, 4                   q = 0.8342
    Date    TT    R. A. (2000) Decl.     Delta      r    Elong.  Phase     V
    2023 06 09    03 04 45.1 +58 48 42   0.05019 0.9782    41.9   136.1    27.0
    ...
    2023 06 24    01 14 42.0 +56 05 56   0.02414 1.0051    61.6   117.2    23.8
    ...
    2023 07 02    23 01 27.4 +37 07 05   0.01248 1.0176    94.2    85.1    20.7
    ...
    2023 07 08    20 52 26.8 -11 12 10   0.01047 1.0260   152.3    27.5    18.6
    2023 07 09    20 32 55.0 -18 57 15   0.01120 1.0272   160.4    19.4    18.5
    2023 07 10    20 14 33.7 -25 30 46   0.01217 1.0285   165.9    13.9    18.5
    ...
    2023 07 16    18 51 31.1 -45 38 36   0.02079 1.0352   154.0    25.5    20.0
    ...
    2023 07 24    17 57 18.0 -52 23 01   0.03500 1.0424   138.6    40.2    21.6
    ...
    2023 08 08    17 31 55.8 -54 26 10   0.06342 1.0506   123.7    53.5    23.3
    
    M. P. C. Staff               (C) Copyright 2023 MPC           M.P.E.C. 2023-N33
    


    Read MPEC 2023-N32 Read MPEC 2023-N34


    MPEC number:

    Enter an MPEC number in one of the following forms:

    • 1997-B01 (the full form)
    • J97B01 (the packed version of the full form)
    • B01 (the abbreviated form)